Date,TemperatureHighF,TemperatureAvgF,TemperatureLowF,DewpointHighF,DewpointAvgF,DewpointLowF,HumidityHigh,HumidityAvg,HumidityLow,PressureMaxIn,PressureMinIn,WindSpeedMaxMPH,WindSpeedAvgMPH,GustSpeedMaxMPH,PrecipitationSumIn
2013-2-1,34.1,28.6,22.7,17.3,11.7,6.7,60,49,37,30.28,29.84,28,5,28,0.00
2013-2-2,32.6,24.3,16.6,22.2,10.5,6.0,90,57,36,30.33,30.06,13,2,13,0.00
2013-2-3,34.7,26.9,22.5,24.1,21.6,18.5,92,81,61,30.06,29.82,11,1,11,0.02
2013-2-4,32.2,26.6,21.3,23.5,13.8,10.0,82,59,42,30.03,29.85,19,4,19,0.00
2013-2-5,33.0,30.0,25.6,29.8,26.7,21.1,93,87,82,29.99,29.90,6,0,6,0.01
2013-2-6,42.8,32.8,24.5,29.1,24.1,16.1,95,72,46,30.37,29.94,20,2,20,0.01
2013-2-7,34.7,28.0,20.2,25.0,17.6,14.6,86,66,47,30.52,30.32,10,1,10,0.00
2013-2-8,37.5,33.6,30.3,33.4,31.0,24.8,96,90,73,30.32,29.68,17,3,17,0.15
2013-2-9,36.8,29.2,20.2,30.7,19.7,8.2,97,69,45,30.38,29.79,29,6,29,0.26
2013-2-10,40.2,26.8,13.3,22.7,13.6,7.9,83,60,32,30.51,30.34,10,1,10,0.12
2013-2-11,42.7,35.5,29.5,42.2,33.2,21.6,98,92,72,30.34,29.67,10,0,10,0.24
2013-2-12,49.6,40.6,29.0,39.2,28.2,24.1,97,63,43,30.00,29.77,20,4,24,0.00
2013-2-13,47.2,35.0,23.5,31.7,26.7,21.4,94,74,46,29.99,29.70,7,0,7,0.00
2013-2-14,52.1,37.5,29.6,37.0,30.6,27.0,97,79,41,30.03,29.73,10,1,10,0.10
2013-2-15,59.2,42.3,29.1,36.8,32.6,27.4,96,72,40,30.04,29.92,14,1,14,0.00
2013-2-16,42.9,36.0,30.1,35.1,27.1,13.7,95,72,50,30.00,29.77,20,3,20,0.05
2013-2-17,34.3,28.2,19.5,14.1,7.8,1.6,51,42,31,30.08,29.73,34,8,34,0.00
2013-2-18,40.2,26.9,17.5,18.2,8.4,1.7,63,46,29,30.30,30.07,23,5,23,0.00
2013-2-19,48.1,36.6,23.1,42.8,30.0,15.8,94,78,50,30.22,29.71,20,3,20,0.16
2013-2-20,36.7,30.9,25.0,28.9,15.4,11.4,75,52,41,30.04,29.78,24,7,25,0.00
2013-2-21,39.7,29.6,23.5,18.2,15.0,11.6,68,55,40,30.31,30.02,24,6,24,0.01
2013-2-22,38.2,30.9,22.4,29.5,22.4,14.6,82,71,55,30.42,30.27,10,1,10,0.00
2013-2-23,45.7,39.4,33.6,44.5,37.7,29.1,97,94,81,30.28,29.82,16,1,16,0.12
2013-2-24,50.3,39.2,31.9,40.6,32.4,22.5,97,78,55,30.03,29.78,22,4,23,0.02
2013-2-25,46.8,36.9,27.0,30.6,26.9,22.5,86,68,51,30.25,30.03,13,2,15,0.00
2013-2-26,45.2,35.9,25.4,36.0,30.2,23.4,94,81,61,30.29,29.85,30,3,30,0.07
2013-2-27,53.9,44.2,37.8,47.6,40.8,36.0,97,88,67,29.87,29.52,35,4,35,0.18
2013-2-28,51.7,42.7,35.6,38.9,34.6,28.9,94,74,49,29.66,29.58,12,2,14,0.00